Torna al catalogo

FENGYUN 1C DEB

AttivoSSO
NORAD 30058·DEBRIS·🇨🇳 China

Lanciato May 10, 1999 da Taiyuan Satellite Launch Center

Loading…

Prossimi Passaggi (prossime 24 ore)

TLE

AggiornatoSource: Space-Track

Epoca: Sep 13, 2026, 22:45 UTC

1 30058U 99025PK  26256.94849803  .00000369  00000-0  48829-3 0  9999
2 30058  99.6554 257.3878 0314327 188.7322 200.2818 13.48571158965573

Traccia FENGYUN 1C DEB in tempo reale con AllMySat

Download on the App Store